Year,Month,Day,Hour,Minute,Value (Times are PST for temperature in C)
2007,10,25,00,00,5.70
2007,10,25,00,01,5.60
2007,10,25,00,02,5.50
2007,10,25,00,03,5.40
2007,10,25,00,04,5.40
2007,10,25,00,05,5.40
2007,10,25,00,06,5.40
2007,10,25,00,07,5.30
2007,10,25,00,08,5.30
2007,10,25,00,09,5.20
2007,10,25,00,10,5.20
2007,10,25,00,11,5.20
2007,10,25,00,12,5.20
2007,10,25,00,13,5.10
2007,10,25,00,14,5.10
2007,10,25,00,15,5.10
2007,10,25,00,16,5.10
2007,10,25,00,17,4.90
2007,10,25,00,18,4.90
2007,10,25,00,19,4.90
2007,10,25,00,20,4.90
2007,10,25,00,21,4.80
2007,10,25,00,22,4.80
2007,10,25,00,23,4.70
2007,10,25,00,24,4.70
2007,10,25,00,25,4.60
2007,10,25,00,26,4.60
2007,10,25,00,27,4.60
2007,10,25,00,28,4.60
2007,10,25,00,29,4.50
2007,10,25,00,30,4.50
2007,10,25,00,31,4.40
2007,10,25,00,32,4.40
2007,10,25,00,33,4.30
2007,10,25,00,34,4.30
2007,10,25,00,35,4.20
2007,10,25,00,36,4.20
2007,10,25,00,37,4.20
2007,10,25,00,38,4.20
2007,10,25,00,39,4.20
2007,10,25,00,40,4.20
2007,10,25,00,41,4.20
2007,10,25,00,42,4.20
2007,10,25,00,43,4.10
2007,10,25,00,44,4.10
2007,10,25,00,45,4.10
2007,10,25,00,46,4.00
2007,10,25,00,47,4.00
2007,10,25,00,48,4.00
2007,10,25,00,49,3.90
2007,10,25,00,50,3.90
2007,10,25,00,51,3.90
2007,10,25,00,52,3.90
2007,10,25,00,53,3.80
2007,10,25,00,54,3.80
2007,10,25,00,55,3.80
2007,10,25,00,56,3.80
2007,10,25,00,57,3.80
2007,10,25,00,58,3.80
2007,10,25,00,59,3.80
2007,10,25,01,00,3.80
2007,10,25,01,01,3.80
2007,10,25,01,02,3.80
2007,10,25,01,03,3.70
2007,10,25,01,04,3.70
2007,10,25,01,05,3.70
2007,10,25,01,06,3.60
2007,10,25,01,07,3.60
2007,10,25,01,08,3.60
2007,10,25,01,09,3.60
2007,10,25,01,10,3.70
2007,10,25,01,11,3.70
2007,10,25,01,12,3.80
2007,10,25,01,13,3.80
2007,10,25,01,14,3.80
2007,10,25,01,15,3.80
2007,10,25,01,16,3.80
2007,10,25,01,17,3.80
2007,10,25,01,18,3.80
2007,10,25,01,19,3.80
2007,10,25,01,20,3.80
2007,10,25,01,21,3.80
2007,10,25,01,22,3.80
2007,10,25,01,23,3.80
2007,10,25,01,24,3.80
2007,10,25,01,25,3.80
2007,10,25,01,26,3.80
2007,10,25,01,27,3.80
2007,10,25,01,28,3.80
2007,10,25,01,29,3.80
2007,10,25,01,30,3.80
2007,10,25,01,31,3.70
2007,10,25,01,32,3.70
2007,10,25,01,33,3.70
2007,10,25,01,34,3.60
2007,10,25,01,35,3.60
2007,10,25,01,36,3.60
2007,10,25,01,37,3.60
2007,10,25,01,38,3.50
2007,10,25,01,39,3.50
2007,10,25,01,40,3.50
2007,10,25,01,41,3.40
2007,10,25,01,42,3.40
2007,10,25,01,43,3.40
2007,10,25,01,44,3.30
2007,10,25,01,45,3.30
2007,10,25,01,46,3.30
2007,10,25,01,47,3.30
2007,10,25,01,48,3.30
2007,10,25,01,49,3.30
2007,10,25,01,50,3.30
2007,10,25,01,51,3.20
2007,10,25,01,52,3.20
2007,10,25,01,53,3.20
2007,10,25,01,54,3.20
2007,10,25,01,55,3.10
2007,10,25,01,56,3.10
2007,10,25,01,57,3.10
2007,10,25,01,58,3.10
2007,10,25,01,59,3.00
2007,10,25,02,00,2.90
2007,10,25,02,01,2.90
2007,10,25,02,02,2.90
2007,10,25,02,03,2.90
2007,10,25,02,04,2.90
2007,10,25,02,05,2.90
2007,10,25,02,06,2.90
2007,10,25,02,07,2.90
2007,10,25,02,08,2.80
2007,10,25,02,09,2.80
2007,10,25,02,10,2.80
2007,10,25,02,11,2.90
2007,10,25,02,12,2.80
2007,10,25,02,13,2.80
2007,10,25,02,14,2.90
2007,10,25,02,15,2.90
2007,10,25,02,16,3.00
2007,10,25,02,17,3.10
2007,10,25,02,18,3.10
2007,10,25,02,19,3.00
2007,10,25,02,20,2.90
2007,10,25,02,21,2.90
2007,10,25,02,22,2.80
2007,10,25,02,23,2.70
2007,10,25,02,24,2.70
2007,10,25,02,25,2.70
2007,10,25,02,26,2.70
2007,10,25,02,27,2.70
2007,10,25,02,28,2.60
2007,10,25,02,29,2.60
2007,10,25,02,30,2.60
2007,10,25,02,31,2.60
2007,10,25,02,32,2.60
2007,10,25,02,33,2.70
2007,10,25,02,34,2.70
2007,10,25,02,35,2.70
2007,10,25,02,36,2.70
2007,10,25,02,37,2.70
2007,10,25,02,38,2.80
2007,10,25,02,39,2.80
2007,10,25,02,40,2.80
2007,10,25,02,41,2.80
2007,10,25,02,42,2.80
2007,10,25,02,43,2.80
2007,10,25,02,44,2.80
2007,10,25,02,45,2.70
2007,10,25,02,46,2.70
2007,10,25,02,47,2.70
2007,10,25,02,48,2.60
2007,10,25,02,49,2.50
2007,10,25,02,50,2.50
2007,10,25,02,51,2.50
2007,10,25,02,52,2.40
2007,10,25,02,53,2.40
2007,10,25,02,54,2.40
2007,10,25,02,55,2.30
2007,10,25,02,56,2.30
2007,10,25,02,57,2.30
2007,10,25,02,58,2.30
2007,10,25,02,59,2.30
2007,10,25,03,00,2.20
2007,10,25,03,01,2.30
2007,10,25,03,02,2.30
2007,10,25,03,03,2.30
2007,10,25,03,04,2.30
2007,10,25,03,05,2.30
2007,10,25,03,06,2.30
2007,10,25,03,07,2.20
2007,10,25,03,08,2.20
2007,10,25,03,09,2.20
2007,10,25,03,10,2.20
2007,10,25,03,11,2.10
2007,10,25,03,12,2.10
2007,10,25,03,13,2.10
2007,10,25,03,14,2.10
2007,10,25,03,15,2.00
2007,10,25,03,16,2.00
2007,10,25,03,17,2.00
2007,10,25,03,18,2.00
2007,10,25,03,19,1.90
2007,10,25,03,20,1.90
2007,10,25,03,21,1.90
2007,10,25,03,22,1.90
2007,10,25,03,23,1.90
2007,10,25,03,24,1.90
2007,10,25,03,25,1.90
2007,10,25,03,26,2.00
2007,10,25,03,27,2.00
2007,10,25,03,28,2.00
2007,10,25,03,29,2.10
2007,10,25,03,30,2.10
2007,10,25,03,31,2.10
2007,10,25,03,32,2.10
2007,10,25,03,33,2.10
2007,10,25,03,34,2.10
2007,10,25,03,35,2.10
2007,10,25,03,36,2.00
2007,10,25,03,37,2.00
2007,10,25,03,38,2.00
2007,10,25,03,39,2.00
2007,10,25,03,40,2.00
2007,10,25,03,41,2.00
2007,10,25,03,42,2.00
2007,10,25,03,43,1.90
2007,10,25,03,44,1.90
2007,10,25,03,45,1.90
2007,10,25,03,46,1.90
2007,10,25,03,47,1.90
2007,10,25,03,48,1.90
2007,10,25,03,49,1.90
2007,10,25,03,50,1.90
2007,10,25,03,51,2.00
2007,10,25,03,52,2.00
2007,10,25,03,53,2.00
2007,10,25,03,54,2.00
2007,10,25,03,55,1.90
2007,10,25,03,56,1.90
2007,10,25,03,57,1.90
2007,10,25,03,58,1.90
2007,10,25,03,59,1.80
2007,10,25,04,00,1.80
2007,10,25,04,01,1.80
2007,10,25,04,02,1.80
2007,10,25,04,03,1.80
2007,10,25,04,04,1.80
2007,10,25,04,05,1.80
2007,10,25,04,06,1.80
2007,10,25,04,07,1.80
2007,10,25,04,08,1.80
2007,10,25,04,09,1.80
2007,10,25,04,10,1.70
2007,10,25,04,11,1.70
2007,10,25,04,12,1.70
2007,10,25,04,13,1.70
2007,10,25,04,14,1.60
2007,10,25,04,15,1.60
2007,10,25,04,16,1.60
2007,10,25,04,17,1.60
2007,10,25,04,18,1.60
2007,10,25,04,19,1.60
2007,10,25,04,20,1.60
2007,10,25,04,21,1.60
2007,10,25,04,22,1.60
2007,10,25,04,23,1.60
2007,10,25,04,24,1.70
2007,10,25,04,25,1.70
2007,10,25,04,26,1.70
2007,10,25,04,27,1.70
2007,10,25,04,28,1.70
2007,10,25,04,29,1.70
2007,10,25,04,30,1.70
2007,10,25,04,31,1.70
2007,10,25,04,32,1.70
2007,10,25,04,33,1.70
2007,10,25,04,34,1.70
2007,10,25,04,35,1.70
2007,10,25,04,36,1.70
2007,10,25,04,37,1.70
2007,10,25,04,38,1.70
2007,10,25,04,39,1.70
2007,10,25,04,40,1.80
2007,10,25,04,41,1.80
2007,10,25,04,42,1.80
2007,10,25,04,43,1.80
2007,10,25,04,44,1.80
2007,10,25,04,45,1.80
2007,10,25,04,46,1.80
2007,10,25,04,47,1.80
2007,10,25,04,48,1.80
2007,10,25,04,49,1.80
2007,10,25,04,50,1.80
2007,10,25,04,51,1.80
2007,10,25,04,52,1.80
2007,10,25,04,53,1.80
2007,10,25,04,54,1.80
2007,10,25,04,55,1.80
2007,10,25,04,56,1.80
2007,10,25,04,57,1.80
2007,10,25,04,58,1.80
2007,10,25,04,59,1.80
2007,10,25,05,00,1.80
2007,10,25,05,01,1.80
2007,10,25,05,02,1.80
2007,10,25,05,03,1.80
2007,10,25,05,04,1.70
2007,10,25,05,05,1.80
2007,10,25,05,06,1.80
2007,10,25,05,07,1.80
2007,10,25,05,08,1.80
2007,10,25,05,09,1.80
2007,10,25,05,10,1.80
2007,10,25,05,11,1.80
2007,10,25,05,12,1.80
2007,10,25,05,13,1.80
2007,10,25,05,14,1.80
2007,10,25,05,15,1.80
2007,10,25,05,16,1.80
2007,10,25,05,17,1.70
2007,10,25,05,18,1.70
2007,10,25,05,19,1.70
2007,10,25,05,20,1.70
2007,10,25,05,21,1.70
2007,10,25,05,22,1.70
2007,10,25,05,23,1.70
2007,10,25,05,24,1.70
2007,10,25,05,25,1.70
2007,10,25,05,26,1.70
2007,10,25,05,27,1.60
2007,10,25,05,28,1.60
2007,10,25,05,29,1.60
2007,10,25,05,30,1.60
2007,10,25,05,31,1.60
2007,10,25,05,32,1.60
2007,10,25,05,33,1.60
2007,10,25,05,34,1.60
2007,10,25,05,35,1.60
2007,10,25,05,36,1.60
2007,10,25,05,37,1.50
2007,10,25,05,38,1.50
2007,10,25,05,39,1.50
2007,10,25,05,40,1.50
2007,10,25,05,41,1.50
2007,10,25,05,42,1.50
2007,10,25,05,43,1.50
2007,10,25,05,44,1.50
2007,10,25,05,45,1.50
2007,10,25,05,46,1.50
2007,10,25,05,47,1.50
2007,10,25,05,48,1.50
2007,10,25,05,49,1.50
2007,10,25,05,50,1.50
2007,10,25,05,51,1.40
2007,10,25,05,52,1.40
2007,10,25,05,53,1.40
2007,10,25,05,54,1.40
2007,10,25,05,55,1.40
2007,10,25,05,56,1.40
2007,10,25,05,57,1.30
2007,10,25,05,58,1.30
2007,10,25,05,59,1.30
2007,10,25,06,00,1.30
2007,10,25,06,01,1.30
2007,10,25,06,02,1.30
2007,10,25,06,03,1.30
2007,10,25,06,04,1.30
2007,10,25,06,05,1.30
2007,10,25,06,06,1.20
2007,10,25,06,07,1.20
2007,10,25,06,08,1.20
2007,10,25,06,09,1.20
2007,10,25,06,10,1.20
2007,10,25,06,11,1.20
2007,10,25,06,12,1.20
2007,10,25,06,13,1.20
2007,10,25,06,14,1.20
2007,10,25,06,15,1.20
2007,10,25,06,16,1.10
2007,10,25,06,17,1.10
2007,10,25,06,18,1.10
2007,10,25,06,19,1.10
2007,10,25,06,20,1.10
2007,10,25,06,21,1.10
2007,10,25,06,22,1.10
2007,10,25,06,23,1.10
2007,10,25,06,24,1.10
2007,10,25,06,25,1.10
2007,10,25,06,26,1.10
2007,10,25,06,27,1.00
2007,10,25,06,28,1.00
2007,10,25,06,29,1.00
2007,10,25,06,30,1.00
2007,10,25,06,31,1.00
2007,10,25,06,32,1.00
2007,10,25,06,33,1.00
2007,10,25,06,34,1.00
2007,10,25,06,35,0.90
2007,10,25,06,36,0.90
2007,10,25,06,37,1.00
2007,10,25,06,38,1.00
2007,10,25,06,39,1.00
2007,10,25,06,40,1.00
2007,10,25,06,41,1.10
2007,10,25,06,42,1.10
2007,10,25,06,43,1.20
2007,10,25,06,44,1.20
2007,10,25,06,45,1.20
2007,10,25,06,46,1.10
2007,10,25,06,47,1.10
2007,10,25,06,48,1.10
2007,10,25,06,49,1.00
2007,10,25,06,50,1.00
2007,10,25,06,51,1.00
2007,10,25,06,52,0.90
2007,10,25,06,53,0.90
2007,10,25,06,54,0.80
2007,10,25,06,55,0.80
2007,10,25,06,56,0.80
2007,10,25,06,57,0.80
2007,10,25,06,58,0.80
2007,10,25,06,59,0.80
2007,10,25,07,00,0.70
2007,10,25,07,01,0.70
2007,10,25,07,02,0.70
2007,10,25,07,03,0.60
2007,10,25,07,04,0.60
2007,10,25,07,05,0.60
2007,10,25,07,06,0.60
2007,10,25,07,07,0.60
2007,10,25,07,08,0.50
2007,10,25,07,09,0.50
2007,10,25,07,10,0.50
2007,10,25,07,11,0.50
2007,10,25,07,12,0.50
2007,10,25,07,13,0.50
2007,10,25,07,14,0.50
2007,10,25,07,15,0.40
2007,10,25,07,16,0.50
2007,10,25,07,17,0.50
2007,10,25,07,18,0.50
2007,10,25,07,19,0.50
2007,10,25,07,20,0.50
2007,10,25,07,21,0.50
2007,10,25,07,22,0.50
2007,10,25,07,23,0.50
2007,10,25,07,24,0.50
2007,10,25,07,25,0.50
2007,10,25,07,26,0.40
2007,10,25,07,27,0.40
2007,10,25,07,28,0.40
2007,10,25,07,29,0.40
2007,10,25,07,30,0.40
2007,10,25,07,31,0.40
2007,10,25,07,32,0.40
2007,10,25,07,33,0.40
2007,10,25,07,34,0.40
2007,10,25,07,35,0.40
2007,10,25,07,36,0.40
2007,10,25,07,37,0.40
2007,10,25,07,38,0.40
2007,10,25,07,39,0.40
2007,10,25,07,40,0.40
2007,10,25,07,41,0.40
2007,10,25,07,42,0.40
2007,10,25,07,43,0.40
2007,10,25,07,44,0.40
2007,10,25,07,45,0.40
2007,10,25,07,46,0.40
2007,10,25,07,47,0.40
2007,10,25,07,48,0.40
2007,10,25,07,49,0.40
2007,10,25,07,50,0.40
2007,10,25,07,51,0.40
2007,10,25,07,52,0.40
2007,10,25,07,53,0.40
2007,10,25,07,54,0.40
2007,10,25,07,55,0.40
2007,10,25,07,56,0.40
2007,10,25,07,57,0.40
2007,10,25,07,58,0.50
2007,10,25,07,59,0.50
2007,10,25,08,00,0.50
2007,10,25,08,01,0.50
2007,10,25,08,02,0.50
2007,10,25,08,03,0.50
2007,10,25,08,04,0.60
2007,10,25,08,05,0.60
2007,10,25,08,06,0.60
2007,10,25,08,07,0.60
2007,10,25,08,08,0.60
2007,10,25,08,09,0.70
2007,10,25,08,10,0.70
2007,10,25,08,11,0.80
2007,10,25,08,12,0.80
2007,10,25,08,13,0.80
2007,10,25,08,14,0.80
2007,10,25,08,15,0.80
2007,10,25,08,16,0.80
2007,10,25,08,17,0.80
2007,10,25,08,18,0.80
2007,10,25,08,19,0.80
2007,10,25,08,20,0.80
2007,10,25,08,21,0.80
2007,10,25,08,22,0.80
2007,10,25,08,23,0.80
2007,10,25,08,24,0.90
2007,10,25,08,25,0.90
2007,10,25,08,26,1.00
2007,10,25,08,27,1.00
2007,10,25,08,28,1.00
2007,10,25,08,29,1.10
2007,10,25,08,30,1.10
2007,10,25,08,31,1.10
2007,10,25,08,32,1.20
2007,10,25,08,33,1.20
2007,10,25,08,34,1.30
2007,10,25,08,35,1.30
2007,10,25,08,36,1.30
2007,10,25,08,37,1.40
2007,10,25,08,38,1.40
2007,10,25,08,39,1.50
2007,10,25,08,40,1.50
2007,10,25,08,41,1.60
2007,10,25,08,42,1.60
2007,10,25,08,43,1.70
2007,10,25,08,44,1.70
2007,10,25,08,45,1.80
2007,10,25,08,46,1.80
2007,10,25,08,47,1.80
2007,10,25,08,48,1.90
2007,10,25,08,49,1.90
2007,10,25,08,50,2.00
2007,10,25,08,51,2.00
2007,10,25,08,52,2.10
2007,10,25,08,53,2.10
2007,10,25,08,54,2.20
2007,10,25,08,55,2.20
2007,10,25,08,56,2.30
2007,10,25,08,57,2.40
2007,10,25,08,58,2.40
2007,10,25,08,59,2.50
2007,10,25,09,00,2.50
2007,10,25,09,01,2.60
2007,10,25,09,02,2.60
2007,10,25,09,03,2.70
2007,10,25,09,04,2.70
2007,10,25,09,05,2.80
2007,10,25,09,06,2.90
2007,10,25,09,07,2.90
2007,10,25,09,08,3.00
2007,10,25,09,09,3.10
2007,10,25,09,10,3.20
2007,10,25,09,11,3.30
2007,10,25,09,12,3.30
2007,10,25,09,13,3.30
2007,10,25,09,14,3.40
2007,10,25,09,15,3.50
2007,10,25,09,16,3.50
2007,10,25,09,17,3.60
2007,10,25,09,18,3.60
2007,10,25,09,19,3.70
2007,10,25,09,20,3.70
2007,10,25,09,21,3.80
2007,10,25,09,22,3.80
2007,10,25,09,23,3.90
2007,10,25,09,24,4.00
2007,10,25,09,25,4.00
2007,10,25,09,26,4.00
2007,10,25,09,27,4.10
2007,10,25,09,28,4.20
2007,10,25,09,29,4.20
2007,10,25,09,30,4.20
2007,10,25,09,31,4.30
2007,10,25,09,32,4.30
2007,10,25,09,33,4.40
2007,10,25,09,34,4.40
2007,10,25,09,35,4.50
2007,10,25,09,36,4.50
2007,10,25,09,37,4.50
2007,10,25,09,38,4.60
2007,10,25,09,39,4.70
2007,10,25,09,40,4.70
2007,10,25,09,41,4.80
2007,10,25,09,42,4.90
2007,10,25,09,43,4.90
2007,10,25,09,44,4.90
2007,10,25,09,45,5.00
2007,10,25,09,46,5.10
2007,10,25,09,47,5.10
2007,10,25,09,48,5.10
2007,10,25,09,49,5.20
2007,10,25,09,50,5.20
2007,10,25,09,51,5.30
2007,10,25,09,52,5.30
2007,10,25,09,53,5.30
2007,10,25,09,54,5.40
2007,10,25,09,55,5.40
2007,10,25,09,56,5.50
2007,10,25,09,57,5.50
2007,10,25,09,58,5.60
2007,10,25,09,59,5.70
2007,10,25,10,00,5.70
2007,10,25,10,01,5.80
2007,10,25,10,02,5.80
2007,10,25,10,03,5.90
2007,10,25,10,04,6.00
2007,10,25,10,05,6.00
2007,10,25,10,06,6.10
2007,10,25,10,07,6.10
2007,10,25,10,08,6.20
2007,10,25,10,09,6.30
2007,10,25,10,10,6.40
2007,10,25,10,11,6.60
2007,10,25,10,12,6.70
2007,10,25,10,13,6.70
2007,10,25,10,14,6.80
2007,10,25,10,15,6.80
2007,10,25,10,16,6.90
2007,10,25,10,17,7.00
2007,10,25,10,18,7.00
2007,10,25,10,19,7.00
2007,10,25,10,20,7.10
2007,10,25,10,21,7.10
2007,10,25,10,22,7.20
2007,10,25,10,23,7.20
2007,10,25,10,24,7.30
2007,10,25,10,25,7.30
2007,10,25,10,26,7.30
2007,10,25,10,27,7.40
2007,10,25,10,28,7.50
2007,10,25,10,29,7.50
2007,10,25,10,30,7.60
2007,10,25,10,31,7.60
2007,10,25,10,32,7.70
2007,10,25,10,33,7.70
2007,10,25,10,34,7.80
2007,10,25,10,35,7.80
2007,10,25,10,36,7.90
2007,10,25,10,37,8.00
2007,10,25,10,38,8.10
2007,10,25,10,39,8.20
2007,10,25,10,40,8.20
2007,10,25,10,41,8.20
2007,10,25,10,42,8.30
2007,10,25,10,43,8.40
2007,10,25,10,44,8.40
2007,10,25,10,45,8.50
2007,10,25,10,46,8.60
2007,10,25,10,47,8.60
2007,10,25,10,48,8.60
2007,10,25,10,49,8.70
2007,10,25,10,50,8.70
2007,10,25,10,51,8.80
2007,10,25,10,52,8.80
2007,10,25,10,53,8.80
2007,10,25,10,54,8.70
2007,10,25,10,55,8.70
2007,10,25,10,56,8.70
2007,10,25,10,57,8.60
2007,10,25,10,58,8.50
2007,10,25,10,59,8.50
2007,10,25,11,00,8.50
2007,10,25,11,01,8.50
2007,10,25,11,02,8.50
2007,10,25,11,03,8.50
2007,10,25,11,04,8.60
2007,10,25,11,05,8.70
2007,10,25,11,06,8.80
2007,10,25,11,07,8.90
2007,10,25,11,08,9.00
2007,10,25,11,09,9.10
2007,10,25,11,10,9.20
2007,10,25,11,11,9.30
2007,10,25,11,12,9.40
2007,10,25,11,13,9.50
2007,10,25,11,14,9.50
2007,10,25,11,15,9.50
2007,10,25,11,16,9.60
2007,10,25,11,17,9.60
2007,10,25,11,18,9.70
2007,10,25,11,19,9.70
2007,10,25,11,20,9.80
2007,10,25,11,21,9.80
2007,10,25,11,22,9.90
2007,10,25,11,23,10.00
2007,10,25,11,24,10.10
2007,10,25,11,25,10.10
2007,10,25,11,26,10.20
2007,10,25,11,27,10.20
2007,10,25,11,28,10.20
2007,10,25,11,29,10.20
2007,10,25,11,30,10.20
2007,10,25,11,31,10.30
2007,10,25,11,32,10.30
2007,10,25,11,33,10.40
2007,10,25,11,34,10.40
2007,10,25,11,35,10.40
2007,10,25,11,36,10.50
2007,10,25,11,37,10.60
2007,10,25,11,38,10.60
2007,10,25,11,39,10.60
2007,10,25,11,40,10.60
2007,10,25,11,41,10.60
2007,10,25,11,42,10.60
2007,10,25,11,43,10.60
2007,10,25,11,44,10.60
2007,10,25,11,45,10.60
2007,10,25,11,46,10.60
2007,10,25,11,47,10.50
2007,10,25,11,48,10.50
2007,10,25,11,49,10.60
2007,10,25,11,50,10.60
2007,10,25,11,51,10.60
2007,10,25,11,52,10.60
2007,10,25,11,53,10.60
2007,10,25,11,54,10.60
2007,10,25,11,55,10.60
2007,10,25,11,56,10.60
2007,10,25,11,57,10.60
2007,10,25,11,58,10.60
2007,10,25,11,59,10.60
2007,10,25,12,00,10.60
2007,10,25,12,01,10.60
2007,10,25,12,02,10.60
2007,10,25,12,03,10.60
2007,10,25,12,04,10.60
2007,10,25,12,05,10.60
2007,10,25,12,06,10.70
2007,10,25,12,07,10.70
2007,10,25,12,08,10.80
2007,10,25,12,09,10.80
2007,10,25,12,10,10.90
2007,10,25,12,11,10.90
2007,10,25,12,12,11.00
2007,10,25,12,13,11.10
2007,10,25,12,14,11.10
2007,10,25,12,15,11.10
2007,10,25,12,16,11.10
2007,10,25,12,17,11.10
2007,10,25,12,18,11.10
2007,10,25,12,19,11.10
2007,10,25,12,20,11.10
2007,10,25,12,21,11.10
2007,10,25,12,22,11.10
2007,10,25,12,23,11.20
2007,10,25,12,24,11.20
2007,10,25,12,25,11.20
2007,10,25,12,26,11.10
2007,10,25,12,27,11.10
2007,10,25,12,28,11.10
2007,10,25,12,29,11.10
2007,10,25,12,30,11.20
2007,10,25,12,31,11.20
2007,10,25,12,32,11.20
2007,10,25,12,33,11.20
2007,10,25,12,34,11.20
2007,10,25,12,35,11.30
2007,10,25,12,36,11.30
2007,10,25,12,37,11.30
2007,10,25,12,38,11.30
2007,10,25,12,39,11.30
2007,10,25,12,40,11.40
2007,10,25,12,41,11.30
2007,10,25,12,42,11.30
2007,10,25,12,43,11.20
2007,10,25,12,44,11.20
2007,10,25,12,45,11.20
2007,10,25,12,46,11.20
2007,10,25,12,47,11.20
2007,10,25,12,48,11.20
2007,10,25,12,49,11.10
2007,10,25,12,50,11.00
2007,10,25,12,51,10.90
2007,10,25,12,52,10.90
2007,10,25,12,53,10.90
2007,10,25,12,54,10.90
2007,10,25,12,55,11.00
2007,10,25,12,56,11.10
2007,10,25,12,57,11.10
2007,10,25,12,58,11.10
2007,10,25,12,59,11.10
2007,10,25,13,00,11.10
2007,10,25,13,01,11.10
2007,10,25,13,02,11.20
2007,10,25,13,03,11.20
2007,10,25,13,04,11.20
2007,10,25,13,05,11.30
2007,10,25,13,06,11.30
2007,10,25,13,07,11.30
2007,10,25,13,08,11.30
2007,10,25,13,09,11.20
2007,10,25,13,10,11.10
2007,10,25,13,11,11.10
2007,10,25,13,12,11.10
2007,10,25,13,13,11.10
2007,10,25,13,14,11.10
2007,10,25,13,15,11.20
2007,10,25,13,16,11.20
2007,10,25,13,17,11.20
2007,10,25,13,18,11.20
2007,10,25,13,19,11.30
2007,10,25,13,20,11.30
2007,10,25,13,21,11.40
2007,10,25,13,22,11.40
2007,10,25,13,23,11.40
2007,10,25,13,24,11.30
2007,10,25,13,25,11.30
2007,10,25,13,26,11.30
2007,10,25,13,27,11.30
2007,10,25,13,28,11.30
2007,10,25,13,29,11.30
2007,10,25,13,30,11.30
2007,10,25,13,31,11.30
2007,10,25,13,32,11.40
2007,10,25,13,33,11.40
2007,10,25,13,34,11.40
2007,10,25,13,35,11.40
2007,10,25,13,36,11.40
2007,10,25,13,37,11.40
2007,10,25,13,38,11.40
2007,10,25,13,39,11.40
2007,10,25,13,40,11.40
2007,10,25,13,41,11.40
2007,10,25,13,42,11.40
2007,10,25,13,43,11.40
2007,10,25,13,44,11.30
2007,10,25,13,45,11.30
2007,10,25,13,46,11.40
2007,10,25,13,47,11.40
2007,10,25,13,48,11.40
2007,10,25,13,49,11.60
2007,10,25,13,50,11.60
2007,10,25,13,51,11.60
2007,10,25,13,52,11.60
2007,10,25,13,53,11.70
2007,10,25,13,54,11.70
2007,10,25,13,55,11.80
2007,10,25,13,56,11.70
2007,10,25,13,57,11.70
2007,10,25,13,58,11.60
2007,10,25,13,59,11.60
2007,10,25,14,00,11.60
2007,10,25,14,01,11.60
2007,10,25,14,02,11.60
2007,10,25,14,03,11.60
2007,10,25,14,04,11.60
2007,10,25,14,05,11.60
2007,10,25,14,06,11.60
2007,10,25,14,07,11.60
2007,10,25,14,08,11.60
2007,10,25,14,09,11.60
2007,10,25,14,10,11.60
2007,10,25,14,11,11.60
2007,10,25,14,12,11.60
2007,10,25,14,13,11.60
2007,10,25,14,14,11.60
2007,10,25,14,15,11.60
2007,10,25,14,16,11.60
2007,10,25,14,17,11.70
2007,10,25,14,18,11.70
2007,10,25,14,19,11.80
2007,10,25,14,20,11.80
2007,10,25,14,21,11.80
2007,10,25,14,22,11.80
2007,10,25,14,23,11.70
2007,10,25,14,24,11.60
2007,10,25,14,25,11.60
2007,10,25,14,26,11.60
2007,10,25,14,27,11.60
2007,10,25,14,28,11.60
2007,10,25,14,29,11.70
2007,10,25,14,30,11.70
2007,10,25,14,31,11.80
2007,10,25,14,32,11.80
2007,10,25,14,33,11.80
2007,10,25,14,34,11.90
2007,10,25,14,35,12.00
2007,10,25,14,36,12.00
2007,10,25,14,37,12.00
2007,10,25,14,38,11.90
2007,10,25,14,39,11.80
2007,10,25,14,40,11.80
2007,10,25,14,41,11.80
2007,10,25,14,42,11.70
2007,10,25,14,43,11.70
2007,10,25,14,44,11.70
2007,10,25,14,45,11.70
2007,10,25,14,46,11.70
2007,10,25,14,47,11.70
2007,10,25,14,48,11.70
2007,10,25,14,49,11.70
2007,10,25,14,50,11.80
2007,10,25,14,51,11.80
2007,10,25,14,52,11.80
2007,10,25,14,53,11.80
2007,10,25,14,54,11.70
2007,10,25,14,55,11.70
2007,10,25,14,56,11.70
2007,10,25,14,57,11.80
2007,10,25,14,58,11.80
2007,10,25,14,59,11.80
2007,10,25,15,00,11.70
2007,10,25,15,01,11.80
2007,10,25,15,02,11.80
2007,10,25,15,03,11.80
2007,10,25,15,04,11.80
2007,10,25,15,05,11.90
2007,10,25,15,06,12.00
2007,10,25,15,07,12.00
2007,10,25,15,08,12.00
2007,10,25,15,09,12.10
2007,10,25,15,10,12.00
2007,10,25,15,11,12.00
2007,10,25,15,12,12.00
2007,10,25,15,13,11.90
2007,10,25,15,14,11.90
2007,10,25,15,15,11.90
2007,10,25,15,16,11.80
2007,10,25,15,17,11.80
2007,10,25,15,18,11.80
2007,10,25,15,19,11.80
2007,10,25,15,20,11.90
2007,10,25,15,21,11.90
2007,10,25,15,22,11.90
2007,10,25,15,23,12.00
2007,10,25,15,24,12.00
2007,10,25,15,25,12.00
2007,10,25,15,26,11.90
2007,10,25,15,27,11.90
2007,10,25,15,28,11.90
2007,10,25,15,29,11.90
2007,10,25,15,30,11.80
2007,10,25,15,31,11.80
2007,10,25,15,32,11.80
2007,10,25,15,33,11.70
2007,10,25,15,34,11.70
2007,10,25,15,35,11.70
2007,10,25,15,36,11.60
2007,10,25,15,37,11.60
2007,10,25,15,38,11.60
2007,10,25,15,39,11.60
2007,10,25,15,40,11.70
2007,10,25,15,41,11.70
2007,10,25,15,42,11.80
2007,10,25,15,43,11.80
2007,10,25,15,44,11.80
2007,10,25,15,45,11.80
2007,10,25,15,46,11.80
2007,10,25,15,47,11.70
2007,10,25,15,48,11.70
2007,10,25,15,49,11.60
2007,10,25,15,50,11.60
2007,10,25,15,51,11.50
2007,10,25,15,52,11.40
2007,10,25,15,53,11.40
2007,10,25,15,54,11.40
2007,10,25,15,55,11.40
2007,10,25,15,56,11.40
2007,10,25,15,57,11.30
2007,10,25,15,58,11.30
2007,10,25,15,59,11.30
2007,10,25,16,00,11.30
2007,10,25,16,01,11.40
2007,10,25,16,02,11.40
2007,10,25,16,03,11.30
2007,10,25,16,04,11.30
2007,10,25,16,05,11.30
2007,10,25,16,06,11.30
2007,10,25,16,07,11.30
2007,10,25,16,08,11.30
2007,10,25,16,09,11.30
2007,10,25,16,10,11.40
2007,10,25,16,11,11.40
2007,10,25,16,12,11.40
2007,10,25,16,13,11.60
2007,10,25,16,14,11.60
2007,10,25,16,15,11.50
2007,10,25,16,16,11.40
2007,10,25,16,17,11.40
2007,10,25,16,18,11.40
2007,10,25,16,19,11.40
2007,10,25,16,20,11.30
2007,10,25,16,21,11.30
2007,10,25,16,22,11.30
2007,10,25,16,23,11.30
2007,10,25,16,24,11.30
2007,10,25,16,25,11.20
2007,10,25,16,26,11.20
2007,10,25,16,27,11.20
2007,10,25,16,28,11.10
2007,10,25,16,29,11.10
2007,10,25,16,30,11.10
2007,10,25,16,31,11.00
2007,10,25,16,32,10.90
2007,10,25,16,33,10.90
2007,10,25,16,34,10.70
2007,10,25,16,35,10.60
2007,10,25,16,36,10.50
2007,10,25,16,37,10.40
2007,10,25,16,38,10.30
2007,10,25,16,39,10.30
2007,10,25,16,40,10.20
2007,10,25,16,41,10.20
2007,10,25,16,42,10.10
2007,10,25,16,43,10.10
2007,10,25,16,44,10.10
2007,10,25,16,45,10.10
2007,10,25,16,46,10.00
2007,10,25,16,47,9.90
2007,10,25,16,48,9.90
2007,10,25,16,49,9.90
2007,10,25,16,50,9.80
2007,10,25,16,51,9.80
2007,10,25,16,52,9.70
2007,10,25,16,53,9.70
2007,10,25,16,54,9.70
2007,10,25,16,55,9.70
2007,10,25,16,56,9.70
2007,10,25,16,57,9.70
2007,10,25,16,58,9.70
2007,10,25,16,59,9.70
2007,10,25,17,00,9.70
2007,10,25,17,01,9.70
2007,10,25,17,02,9.70
2007,10,25,17,03,9.70
2007,10,25,17,04,9.70
2007,10,25,17,05,9.70
2007,10,25,17,06,9.60
2007,10,25,17,07,9.60
2007,10,25,17,08,9.50
2007,10,25,17,09,9.50
2007,10,25,17,10,9.40
2007,10,25,17,11,9.40
2007,10,25,17,12,9.30
2007,10,25,17,13,9.20
2007,10,25,17,14,9.10
2007,10,25,17,15,9.00
2007,10,25,17,16,8.90
2007,10,25,17,17,8.90
2007,10,25,17,18,8.80
2007,10,25,17,19,8.70
2007,10,25,17,20,8.70
2007,10,25,17,21,8.70
2007,10,25,17,22,8.60
2007,10,25,17,23,8.50
2007,10,25,17,24,8.40
2007,10,25,17,25,8.40
2007,10,25,17,26,8.30
2007,10,25,17,27,8.20
2007,10,25,17,28,8.10
2007,10,25,17,29,8.10
2007,10,25,17,30,8.00
2007,10,25,17,31,7.90
2007,10,25,17,32,7.90
2007,10,25,17,33,7.80
2007,10,25,17,34,7.80
2007,10,25,17,35,7.80
2007,10,25,17,36,7.70
2007,10,25,17,37,7.70
2007,10,25,17,38,7.60
2007,10,25,17,39,7.60
2007,10,25,17,40,7.50
2007,10,25,17,41,7.50
2007,10,25,17,42,7.40
2007,10,25,17,43,7.40
2007,10,25,17,44,7.30
2007,10,25,17,45,7.30
2007,10,25,17,46,7.30
2007,10,25,17,47,7.30
2007,10,25,17,48,7.30
2007,10,25,17,49,7.20
2007,10,25,17,50,7.20
2007,10,25,17,51,7.10
2007,10,25,17,52,7.10